Historyczne dane pomiarowe

Dodano dane terminowe – wersja testowa.

Dane z okresu 1951-2019

Wersja bazy: 1.34 [2019-03-16, lista zmian], aktualizacja planowana na 2019-04-15

Dane meteo z obszaru Polski uzyskane na podstawie danych udostępnionych przez Instytut Meteorologii i Gospodarki Wodnej – Państwowy Instytut Badawczy.

 

Wybierz Datę:    

       

TemperaturaWilgotnośćWiatrCiśnienieOpadyŚniegCzas trwania zjawisk
 Stacja t tx tn tng RH VA  wxwx mslp ppp RRR   cm mm wxwxwxwxwxwxwx
2018-12-31 2.0 3.3 1.5 0.8 83.4 5.9- 3.1--1026.7 989.8 0.7 0.7 0.0x- 0.0-------
2018-12-30 3.6 6.5 2.3 0.8 84.4 6.6- 1.4--1020.7 984.2 1.8 0.4 1.4x- 1.1-------
2018-12-29 3.5 4.8 2.9 2.1 83.9 6.6- 2.0--1025.6 988.9 0.4 0.3 0.1x- 0.1-------
2018-12-28 5.2 6.4 3.6 3.1 82.3 7.3- 3.5--1021.3 985.0 0.9 0.2 0.7x- 0.0-------
2018-12-27 4.3 6.6 2.6 1.8 86.8 7.2- 2.0--1023.6 987.1 1.2 1.2 0.0x- 0.0-------
2018-12-26 3.3 4.0 0.7 0.0 78.6 6.1- 4.9--1024.3 987.7 0.0 0.0 0.0x- 0.0-------
2018-12-25 0.1 1.8 -2.0 -2.1 82.5 5.1- 4.1--1025.1 988.0 0.8 0.5 0.3x- 0.0-------
2018-12-24 1.4 4.7 -0.6 -0.8 84.3 5.8- 2.8--1015.2 978.6 2.8 2.8 0.0x- 0.0-------
2018-12-23 3.4 6.7 1.4 -0.1 85.5 6.7- 2.0--1017.4 981.0 2.1 0.4 1.7x- 0.0-------
2018-12-22 6.5 8.6 1.2 0.5 75.1 7.3- 4.1--1008.9 973.1 1.5 1.4 0.1x- 0.0-------
2018-12-21 0.6 2.1 -2.3 -5.1 77.1 4.9- 1.9--1018.9 982.0 0.0 0.0 0.0x- 2.8-------
2018-12-20 -2.2 2.1 -7.5-11.1 82.8 4.3- 1.8--1022.1 984.7 0.0 0.0 0.0x- 0.0-------
2018-12-19 -4.7 -0.9 -6.3-10.6 91.9 4.0- 1.1--1028.2 990.3 0.0 0.0 0.0x- 3.9-------
2018-12-18 -1.4 1.4 -3.0 -5.3 93.3 5.2- 0.6--1030.0 992.6 0.0 0.0 0.0x- 0.0-------
2018-12-17 -6.3 -2.8-11.6-16.3 91.8 3.6- 1.0--1024.7 986.7 0.0 0.0 0.0x- 0.0-------
2018-12-16 -4.7 -1.1 -6.6-12.3 92.3 4.0- 0.9--1020.7 983.1 0.1 0.1 0.0x- 2.4-------
2018-12-15 -1.8 -0.8 -2.6 -2.8 81.8 4.4- 2.5--1024.5 987.1 1.1 0.5 0.6x- 0.0-------
2018-12-14 -1.2 -0.4 -1.7 -1.8 87.9 4.9- 1.5--1025.3 988.0 0.0 0.0 0.0x- 0.0-------
2018-12-13 -0.5 0.2 -1.0 -3.0 92.3 5.5- 1.0--1023.1 986.0 0.0 0.0 0.0x- 0.0-------
2018-12-12 0.1 0.9 -0.4 -1.6 97.1 6.0- 1.0--1019.2 982.3 0.2 0.2 0.0x- 0.0-------
2018-12-11 0.4 3.0 -0.9 -3.2 91.5 5.8- 1.4--1012.7 976.1 2.9 0.2 2.7x- 0.4-------
2018-12-10 2.4 5.2 1.7 -0.9 86.4 6.3- 2.5--1007.9 971.7 2.8 0.7 2.1x- 0.3-------
2018-12-09 3.9 8.6 -0.8 -3.0 77.4 6.2- 2.6--1001.9 966.1 2.6 0.5 2.1x- 1.2-------
2018-12-08 3.2 7.0 1.7 -0.8 84.0 6.5- 2.0--1008.5 972.4 0.9 0.9 0.0x- 0.0-------
2018-12-07 2.9 6.0 0.8 -0.1 77.8 5.9- 1.4--1015.5 979.1 3.8 0.0 3.8x- 0.0-------
2018-12-06 -1.0 2.7 -5.8 -8.8 80.4 4.5- 1.0--1026.5 989.2 0.0 0.0 0.0x- 5.4-------
2018-12-05 1.3 6.0 -1.9 -4.7 74.8 5.0- 3.1--1028.4 991.3 0.0 0.0 0.0x- 4.3-------
2018-12-04 4.7--- 86.0------- 0.9 0.9 0.0x- 0.0-------
2018-12-03 3.2 7.4 0.7 0.0 78.8 6.1- 1.9--1009.8 973.7 0.0 0.0 0.0x- 2.8-------
2018-12-02 -0.2 2.0 -4.1 -8.1 75.9 4.6- 2.8--1016.7 979.9 0.3 0.0 0.3x- 6.6-------
2018-12-01 -6.8 -3.5-12.5-14.9 75.5 2.8- 1.1--1022.1 984.2 0.0 0.0 0.0x- 3.5-------
2018-11-30 -4.2 0.7 -7.6-12.2 68.0 3.0- 1.9--1028.1 990.3 0.0 0.0 0.0x- 7.6-------
2018-11-29 -4.6 0.6-10.4-14.0 78.8 3.4- 1.5--1035.0 996.8 0.0 0.0 0.0x- 7.7-------
2018-11-28 -1.9 -0.1 -2.3 -3.4 76.9 4.1- 1.8--1030.1 992.5 0.0 0.0 0.0x- 2.1-------
2018-11-27 -1.8 1.6 -2.8 -3.6 87.8 4.7- 2.4--1018.3 981.2 3.7 3.7 0.0x- 0.0-------
2018-11-26 3.5 6.5 1.6 1.2 93.4 7.4- 3.9--1008.9 972.9 3.1 3.0 0.1x- 0.0-------
2018-11-25 6.2 8.5 5.1 4.5 88.6 8.4- 0.8--1013.6 977.7 5.9 0.0 5.9x- 0.0-------
2018-11-24 5.2 9.2 -1.7 -2.8 80.5 7.0- 1.8--1017.8 981.6 0.6 0.6 0.0x- 1.4-------
2018-11-23 1.4 4.9 0.1 -2.1 93.6 6.3- 0.4--1026.5 989.5 0.0 0.0 0.0x- 0.2-------
2018-11-22 0.6 1.7 0.0 -0.6 88.9 5.7- 1.3--1025.5 988.4 0.0 0.0 0.0x- 0.0-------
2018-11-21 0.3 0.7 0.0 -0.3 92.4 5.8- 1.9--1021.4 984.4 0.0 0.0 0.0x- 0.0-------
2018-11-20 1.2 3.0 0.4 0.0 82.3 5.5- 1.9--1020.5 983.7 2.0 0.8 1.2x- 2.9-------
2018-11-19 -0.6 0.7 -2.4 -5.2 83.6 4.9- 1.6--1021.8 984.7 0.0 0.0 0.0x- 0.0-------
2018-11-18 -1.6 0.9 -4.7 -7.0 81.4 4.4- 0.9--1028.8 991.4 0.0 0.0 0.0x- 1.8-------
2018-11-17 -0.1 3.6 -1.9 -3.4 75.6 4.6- 2.0--1037.81000.2 0.0 0.0 0.0x- 4.8-------
2018-11-16 3.9 6.3 3.1 2.4 80.3 6.5- 2.0--1036.6 999.6 0.0 0.0 0.0x- 0.0-------
2018-11-15 6.9 8.3 5.7 3.8 87.1 8.6- 1.0--1031.5 995.0 1.1 1.0 0.1x- 0.1-------
2018-11-14 9.0 12.8 7.4 6.2 74.9 8.6- 3.6--1029.1 993.0 1.5 0.1 1.4x- 0.3-------
2018-11-13 10.6 17.7 3.1 0.3 74.1 9.3- 1.8--1024.9 989.2 0.0 0.0 0.0x- 8.2-------
2018-11-12 9.6 18.2 1.5 -1.4 76.5 8.9- 1.5--1024.8 988.9 0.0 0.0 0.0x- 7.7-------
2018-11-11 8.2 17.2 0.1 -2.6 79.3 8.4- 1.8--1018.7 982.9 0.0 0.0 0.0x- 8.3-------
2018-11-10 6.7 13.1 2.6 -0.2 86.5 8.5- 1.4--1017.6 981.7 0.0 0.0 0.0x- 7.4-------
2018-11-09 7.1 16.3 1.0 -1.3 86.4 8.6- 0.8--1021.3 985.2 0.0 0.0 0.0x- 7.5-------
2018-11-08 8.2 17.9 2.2 -1.1 80.0 8.5- 0.5--1022.0 986.0 0.0 0.0 0.0x- 8.4-------
2018-11-07 10.6 19.8 2.0 -1.3 63.8 7.8- 1.8--1019.2 983.6 0.0 0.0 0.0x- 8.8-------
2018-11-06 13.4 21.6 6.1 3.1 49.9 7.3- 2.0--1022.0 986.6 0.0 0.0 0.0x- 9.1-------
2018-11-05 12.1 20.1 6.2 6.7 78.0 10.8- 1.1--1025.1 989.5 0.0 0.0 0.0x- 7.7-------
2018-11-04 11.7 13.1 10.7 10.5 94.9 13.0- 1.0--1025.4 989.8 0.1 0.0 0.1x- 0.0-------
2018-11-03 12.9 17.1 11.0 9.0 91.3 13.5- 1.4--1026.1 990.6 0.1 0.0 0.1x- 2.3-------
2018-11-02 17.1 21.2 13.6 11.4 70.3 13.4- 1.8--1022.2 987.3 0.1 0.0 0.1x- 7.3-------
163.9 ms

 

Źródłem pochodzenia danych jest Instytut Meteorologii i Gospodarki Wodnej – Państwowy Instytut Badawczy. Dane Instytutu Meteorologii i Gospodarki Wodnej – Państwowego Instytutu Badawczego zostały przetworzone.

Dane źródłowe można odnaleźć na stronie https://dane.imgw.pl